Regional Weather Roundup
Issued by NWS Sioux Falls, SD

Home | Current Version | Previous Version | Graphics & Text | Print | Product List | Glossary Off
Versions: 1 2 3 4 5 6 7 8 9 10 11 12 13 14 15 16 17 18 19 20 21 22 23 24 25 26 27 28 29 30 31 32 33 34 35 36 37 38 39 40 41 42 43 44 45 46 47 48 49 50

000
ASUS43 KFSD 261902
RWRFSD

WEATHER ROUNDUP FOR SE SOUTH DAKOTA/SW MINNESOTA/NW IOWA
NATIONAL WEATHER SERVICE SIOUX FALLS SD
200 PM CDT SUN MAR 26 2017

NOTE: "FAIR" INDICATES FEW OR NO CLOUDS BELOW 12,000 FEET WITH NO
SIGNIFICANT WEATHER AND OR OBSTRUCTIONS TO VISIBILITY.


SDZ038>040-050-052>070-262000-
SOUTHEAST SOUTH DAKOTA

CITY           SKY/WX    TMP DP  RH WIND       PRES   REMARKS
BROOKINGS      CLOUDY    39  36  89 NE3       29.93S
CHAMBERLAIN    CLOUDY    45  40  82 CALM      29.94S
HURON          CLOUDY    44  37  76 CALM      29.95S
MADISON        CLOUDY    39  39 100 CALM      29.94R
MITCHELL       CLOUDY    45  39  79 VRB5      29.95F
SIOUX FALLS    CLOUDY    45  38  76 VRB5      29.94R
WINNER         CLOUDY    45  39  79 S5        29.93S
YANKTON        CLOUDY    45  37  76 NW5       29.94F
$$

MNZ071-072-080-081-089-090-097-098-262000-
SOUTHWEST MINNESOTA

CITY           SKY/WX    TMP DP  RH WIND       PRES   REMARKS
FAIRMONT       CLOUDY    41  38  89 N9        29.90S
JACKSON        CLOUDY    41  37  87 N6        29.90S
LUVERNE        CLOUDY    43  34  70 N6        29.93S
MARSHALL       CLOUDY    41  37  86 N9        29.94S
MONTEVIDEO     CLOUDY    45  37  76 NE7       29.95F
PIPESTONE      CLOUDY    41  34  75 NE6       29.92S
REDWOOD FALLS  CLOUDY    43  35  73 N5        29.92S
TRACY          CLOUDY    42  38  85 N9        29.92S
WINDOM         CLOUDY    41  37  87 N10       29.90F
WORTHINGTON    CLOUDY    41  37  86 NE9       29.91S
$$

IAZ001>003-012>014-020>022-031-032-NEZ013-014-SDZ071-262000-
NORTHWEST IOWA

CITY           SKY/WX    TMP DP  RH WIND       PRES   REMARKS
CHEROKEE       CLOUDY    44  40  88 CALM      29.92R
ESTHERVILLE    CLOUDY    41  40  96 N9        29.89S
LE MARS        CLOUDY    46  39  76 N7        29.94S
ORANGE CITY    CLOUDY    43  39  87 N5        29.92S
SHELDON        CLOUDY    43  43 100 MISG      29.90S
SIOUX CITY     CLOUDY    45  40  82 NW8       29.94S
SPENCER        CLOUDY    46  39  76 N8        29.90S
STORM LAKE       N/A     43  39  87 N6        29.90S
$$

ABBREVIATIONS USED IN REMARKS
   TC - TEMPERATURE IN CELSIUS
  WCI - WIND CHILL INDEX
   HX - HEAT INDEX
  VSB - VISIBILITY




USA.gov is the U.S. government's official web portal to all federal, state and local government web resources and services.